START_TIME,STEP,MOV.,M6,t_acc.,M7,t_acc.,M19,t_acc.,H36,t_acc.
1979-07-03 12:00:27.970 ,0,0,0.,12.0,0.,12.0,0.,12.0,0.,12.0
1979-07-03 12:00:39.970 ,0,0,0.,12.0,0.,12.0,0.,12.0,0.,12.0
1979-07-03 12:00:51.970 ,1,1,0.,12.0,0.,12.0,0.,12.0,0.,12.0
1979-07-03 12:01:03.970 ,1,1,0.,12.0,0.,12.0,0.,12.0,0.,12.0
1979-07-03 12:01:15.960 ,1,0,0.,12.0,0.,12.0,0.,12.0,0.,12.0
1979-07-03 12:01:27.970 ,1,0,0.,12.0,0.,12.0,0.,12.0,0.,12.0
1979-07-03 12:01:39.970 ,2,1,0.,12.0,0.,12.0,0.,12.0,0.,12.0
1979-07-03 12:01:51.970 ,2,1,0.,12.0,0.,12.0,0.,12.0,0.,12.0
1979-07-03 12:02:03.960 ,2,0,0.,12.0,0.,12.0,0.,12.0,0.,12.0
1979-07-03 12:02:15.960 ,2,0,0.,12.0,0.,12.0,0.,12.0,0.,12.0
1979-07-03 12:02:27.970 ,3,1,0.,12.0,0.,12.0,0.,12.0,0.,12.0
1979-07-03 12:02:39.970 ,3,1,0.,12.0,0.,12.0,0.,12.0,0.,12.0
1979-07-03 12:02:51.970 ,3,0,0.,12.0,0.,12.0,0.,12.0,0.,12.0
1979-07-03 12:03:03.970 ,3,0,0.,12.0,0.,12.0,0.,12.0,0.,12.0
1979-07-03 12:03:15.970 ,4,1,0.,12.0,0.,12.0,0.,12.0,0.,12.0
1979-07-03 12:03:27.970 ,4,1,0.,12.0,0.,12.0,0.,12.0,0.,12.0
1979-07-03 12:03:39.970 ,4,0,0.,12.0,0.,12.0,0.,12.0,0.,12.0
1979-07-03 12:03:51.970 ,4,0,0.,12.0,0.,12.0,0.,12.0,0.,12.0
1979-07-03 12:04:03.970 ,5,1,0.,12.0,0.,12.0,0.,12.0,0.,12.0
1979-07-03 12:04:15.970 ,5,1,0.,12.0,0.,12.0,0.,12.0,0.,12.0
1979-07-03 12:04:27.960 ,5,0,0.,12.0,0.,12.0,0.,12.0,0.,12.0
1979-07-03 12:04:39.960 ,5,0,0.,12.0,0.,12.0,0.,12.0,0.,12.0
1979-07-03 12:04:51.960 ,6,1,0.,12.0,0.,12.0,0.,12.0,0.,12.0
1979-07-03 12:05:03.960 ,6,1,0.,12.0,0.,12.0,0.,12.0,0.,12.0
1979-07-03 12:05:15.960 ,6,0,0.,12.0,0.,12.0,0.,12.0,0.,12.0
1979-07-03 12:05:27.960 ,6,0,0.,12.0,0.,12.0,0.,12.0,0.,12.0
1979-07-03 12:05:39.960 ,7,1,0.,12.0,0.,12.0,0.,12.0,0.,12.0
1979-07-03 12:05:51.960 ,7,1,0.,12.0,0.,12.0,0.,12.0,0.,12.0
1979-07-03 12:06:03.960 ,7,0,0.,12.0,0.,12.0,0.,12.0,0.,12.0
1979-07-03 12:06:15.960 ,7,0,1.,12.0,0.,12.0,0.,12.0,0.,12.0
1979-07-03 12:06:27.960 ,7,1,0.,12.0,0.,12.0,0.,12.0,0.,12.0
1979-07-03 12:06:39.960 ,7,1,0.,12.0,0.,12.0,0.,12.0,0.,12.0
1979-07-03 12:06:51.960 ,7,0,0.,12.0,0.,12.0,0.,12.0,0.,12.0
1979-07-03 12:07:03.960 ,7,0,0.,12.0,0.,12.0,0.,12.0,0.,12.0
1979-07-03 12:07:15.960 ,6,1,0.,12.0,0.,12.0,0.,12.0,0.,12.0
1979-07-03 12:07:27.960 ,6,1,0.,12.0,0.,12.0,0.,12.0,0.,12.0
1979-07-03 12:07:39.960 ,6,0,0.,12.0,0.,12.0,0.,12.0,0.,12.0
1979-07-03 12:07:51.960 ,6,0,0.,12.0,0.,12.0,0.,12.0,0.,12.0
1979-07-03 12:08:03.960 ,5,1,0.,12.0,0.,12.0,0.,12.0,0.,12.0
1979-07-03 12:08:15.960 ,5,1,0.,12.0,0.,12.0,0.,12.0,0.,12.0
1979-07-03 12:08:27.960 ,5,0,0.,12.0,0.,12.0,0.,12.0,0.,12.0
1979-07-03 12:08:39.970 ,5,0,0.,12.0,0.,12.0,0.,12.0,0.,12.0
1979-07-03 12:08:51.960 ,4,1,0.,12.0,0.,12.0,0.,12.0,0.,12.0
1979-07-03 12:09:03.970 ,4,1,0.,12.0,0.,12.0,0.,12.0,0.,12.0
1979-07-03 12:09:15.960 ,4,0,0.,12.0,0.,12.0,0.,12.0,0.,12.0
1979-07-03 12:09:27.970 ,4,0,0.,12.0,0.,12.0,0.,12.0,0.,12.0
1979-07-03 12:09:39.960 ,3,1,0.,12.0,0.,12.0,0.,12.0,0.,12.0
1979-07-03 12:09:51.970 ,3,1,0.,12.0,0.,12.0,0.,12.0,0.,12.0
1979-07-03 12:10:03.960 ,3,0,0.,12.0,0.,12.0,0.,12.0,0.,12.0
1979-07-03 12:10:15.970 ,3,0,0.,12.0,0.,12.0,0.,12.0,0.,12.0
1979-07-03 12:10:27.960 ,2,1,0.,12.0,0.,12.0,0.,12.0,0.,12.0
1979-07-03 12:10:39.970 ,2,1,0.,12.0,0.,12.0,0.,12.0,0.,12.0
1979-07-03 12:10:51.960 ,2,0,0.,12.0,0.,12.0,0.,12.0,0.,12.0
1979-07-03 12:11:03.970 ,2,0,0.,12.0,0.,12.0,0.,12.0,0.,12.0
1979-07-03 12:12:03.960 ,0,0,0.,12.0,0.,12.0,0.,12.0,0.,12.0
1979-07-03 12:12:15.970 ,0,0,0.,12.0,0.,12.0,0.,12.0,0.,12.0
1979-07-03 12:12:27.960 ,0,0,0.,12.0,0.,12.0,0.,12.0,0.,12.0
1979-07-03 12:12:39.970 ,0,0,0.,12.0,0.,12.0,0.,12.0,0.,12.0
1979-07-03 12:12:51.960 ,0,1,0.,12.0,0.,12.0,0.,12.0,0.,12.0
1979-07-03 12:13:03.960 ,0,1,0.,12.0,0.,12.0,0.,12.0,0.,12.0
1979-07-03 12:13:15.960 ,0,0,0.,12.0,0.,12.0,0.,12.0,0.,12.0
1979-07-03 12:13:27.960 ,0,0,1.,12.0,0.,12.0,0.,12.0,0.,12.0
1979-07-03 12:13:39.960 ,1,1,0.,12.0,0.,12.0,0.,12.0,0.,12.0
1979-07-03 12:13:51.960 ,1,1,0.,12.0,0.,12.0,0.,12.0,0.,12.0
1979-07-03 12:14:03.960 ,1,0,0.,12.0,0.,12.0,0.,12.0,0.,12.0
1979-07-03 12:14:15.960 ,1,0,0.,12.0,0.,12.0,0.,12.0,0.,12.0
1979-07-03 12:14:27.960 ,2,1,0.,12.0,0.,12.0,0.,12.0,0.,12.0
1979-07-03 12:14:39.960 ,2,1,0.,12.0,0.,12.0,0.,12.0,0.,12.0
1979-07-03 12:14:51.960 ,2,0,0.,12.0,0.,12.0,0.,12.0,0.,12.0
1979-07-03 12:15:03.960 ,2,0,0.,12.0,0.,12.0,0.,12.0,0.,12.0
1979-07-03 12:15:15.960 ,3,1,0.,12.0,0.,12.0,0.,12.0,0.,12.0
1979-07-03 12:15:27.960 ,3,1,0.,12.0,0.,12.0,0.,12.0,0.,12.0
1979-07-03 12:15:39.960 ,3,0,0.,12.0,0.,12.0,0.,12.0,0.,12.0
1979-07-03 12:15:51.960 ,3,0,0.,12.0,0.,12.0,0.,12.0,0.,12.0
1979-07-03 12:16:03.960 ,4,1,0.,12.0,0.,12.0,0.,12.0,0.,12.0
1979-07-03 12:16:15.960 ,4,1,0.,12.0,0.,12.0,0.,12.0,0.,12.0
1979-07-03 12:16:27.960 ,4,0,0.,12.0,0.,12.0,0.,12.0,0.,12.0
1979-07-03 12:16:39.960 ,4,0,0.,12.0,0.,12.0,0.,12.0,0.,12.0
1979-07-03 12:16:51.960 ,5,1,0.,12.0,0.,12.0,0.,12.0,0.,12.0
1979-07-03 12:17:03.960 ,5,1,0.,12.0,0.,12.0,0.,12.0,0.,12.0
1979-07-03 12:17:15.960 ,5,0,0.,12.0,0.,12.0,0.,12.0,0.,12.0
1979-07-03 12:17:27.960 ,5,0,0.,12.0,0.,12.0,0.,12.0,0.,12.0
1979-07-03 12:17:39.960 ,6,1,0.,12.0,0.,12.0,0.,12.0,0.,12.0
1979-07-03 12:17:51.960 ,6,1,0.,12.0,0.,12.0,0.,12.0,0.,12.0
1979-07-03 12:18:03.960 ,6,0,0.,12.0,0.,12.0,0.,12.0,0.,12.0
1979-07-03 12:18:15.960 ,6,0,0.,12.0,0.,12.0,0.,12.0,0.,12.0
1979-07-03 12:18:27.960 ,7,0,0.,12.0,0.,12.0,0.,12.0,0.,12.0
1979-07-03 12:18:39.960 ,7,0,0.,12.0,0.,12.0,0.,12.0,0.,12.0
1979-07-03 12:18:51.960 ,7,0,0.,12.0,0.,12.0,0.,12.0,0.,12.0
1979-07-03 12:19:03.960 ,7,0,0.,12.0,0.,12.0,0.,12.0,0.,12.0
1979-07-03 12:19:15.960 ,4,1,0.,12.0,0.,12.0,0.,12.0,0.,12.0
1979-07-03 12:19:27.960 ,4,1,0.,12.0,0.,12.0,0.,12.0,0.,12.0
1979-07-03 12:19:39.960 ,0,1,0.,12.0,0.,12.0,0.,12.0,0.,12.0
1979-07-03 12:19:51.960 ,0,1,0.,12.0,0.,12.0,0.,12.0,0.,12.0
1979-07-03 12:20:03.960 ,3,1,0.,12.0,0.,12.0,0.,12.0,0.,12.0
1979-07-03 12:20:15.960 ,3,1,0.,12.0,0.,12.0,0.,12.0,0.,12.0
1979-07-03 12:20:27.960 ,7,1,0.,12.0,0.,12.0,0.,12.0,0.,12.0
1979-07-03 12:20:39.960 ,7,1,0.,12.0,0.,12.0,0.,12.0,0.,12.0
1979-07-03 12:20:51.960 ,4,1,0.,12.0,0.,12.0,0.,12.0,0.,12.0
1979-07-03 12:21:03.960 ,4,1,0.,12.0,0.,12.0,0.,12.0,0.,12.0
1979-07-03 12:21:15.960 ,0,1,0.,12.0,0.,12.0,0.,12.0,0.,12.0
1979-07-03 12:21:27.960 ,0,1,0.,12.0,0.,12.0,0.,12.0,0.,12.0
1979-07-03 12:21:39.960 ,3,1,0.,12.0,0.,12.0,0.,12.0,0.,12.0
1979-07-03 12:21:51.960 ,3,1,0.,12.0,0.,12.0,0.,12.0,0.,12.0
1979-07-03 12:22:03.960 ,7,1,0.,12.0,0.,12.0,0.,12.0,0.,12.0
1979-07-03 12:22:15.960 ,7,1,0.,12.0,0.,12.0,0.,12.0,0.,12.0
1979-07-03 12:22:27.960 ,4,1,0.,12.0,0.,12.0,0.,12.0,0.,12.0
1979-07-03 12:22:39.960 ,4,1,0.,12.0,0.,12.0,0.,12.0,0.,12.0
1979-07-03 12:22:51.960 ,0,1,0.,12.0,0.,12.0,0.,12.0,0.,12.0
1979-07-03 12:23:03.960 ,0,1,0.,12.0,0.,12.0,0.,12.0,0.,12.0
1979-07-03 12:23:15.960 ,3,1,0.,12.0,0.,12.0,0.,12.0,0.,12.0
1979-07-03 12:23:27.960 ,3,1,0.,12.0,0.,12.0,0.,12.0,0.,12.0
1979-07-03 12:23:39.960 ,7,1,0.,12.0,0.,12.0,0.,12.0,0.,12.0
1979-07-03 12:23:51.960 ,7,1,0.,12.0,0.,12.0,0.,12.0,0.,12.0
1979-07-03 12:24:03.960 ,4,1,0.,12.0,0.,12.0,0.,12.0,0.,12.0
1979-07-03 12:24:15.960 ,4,1,0.,12.0,0.,12.0,0.,12.0,0.,12.0
1979-07-03 12:24:27.960 ,0,1,0.,12.0,0.,12.0,0.,12.0,0.,12.0
1979-07-03 12:24:39.960 ,0,1,0.,12.0,0.,12.0,0.,12.0,0.,12.0
1979-07-03 12:24:51.960 ,3,1,0.,12.0,0.,12.0,0.,12.0,0.,12.0
1979-07-03 12:25:03.960 ,3,1,0.,12.0,0.,12.0,0.,12.0,0.,12.0
1979-07-03 12:25:15.960 ,7,1,0.,12.0,0.,12.0,0.,12.0,0.,12.0
1979-07-03 12:25:27.960 ,7,1,0.,12.0,0.,12.0,0.,12.0,0.,12.0
1979-07-03 12:25:39.960 ,4,1,0.,12.0,0.,12.0,0.,12.0,0.,12.0
1979-07-03 12:25:51.960 ,4,1,0.,12.0,0.,12.0,0.,12.0,0.,12.0
1979-07-03 12:26:03.960 ,0,1,0.,12.0,0.,12.0,0.,12.0,0.,12.0
1979-07-03 12:26:15.960 ,0,1,0.,12.0,0.,12.0,0.,12.0,0.,12.0
1979-07-03 12:26:27.960 ,3,1,0.,12.0,0.,12.0,0.,12.0,0.,12.0
1979-07-03 12:26:39.960 ,3,1,0.,12.0,0.,12.0,0.,12.0,0.,12.0
1979-07-03 12:26:51.960 ,7,1,0.,12.0,0.,12.0,0.,12.0,0.,12.0
1979-07-03 12:27:03.960 ,7,1,0.,12.0,0.,12.0,0.,12.0,0.,12.0
1979-07-03 12:27:15.960 ,4,1,0.,12.0,0.,12.0,0.,12.0,0.,12.0
1979-07-03 12:27:27.960 ,4,1,0.,12.0,0.,12.0,0.,12.0,0.,12.0
1979-07-03 12:27:39.960 ,0,1,0.,12.0,0.,12.0,0.,12.0,0.,12.0
1979-07-03 12:27:51.960 ,0,1,0.,12.0,0.,12.0,0.,12.0,0.,12.0
1979-07-03 12:28:03.960 ,3,1,0.,12.0,0.,12.0,0.,12.0,0.,12.0
1979-07-03 12:28:15.960 ,3,1,0.,12.0,0.,12.0,0.,12.0,0.,12.0
1979-07-03 12:28:27.960 ,7,1,0.,12.0,0.,12.0,0.,12.0,0.,12.0
1979-07-03 12:28:39.960 ,7,1,0.,12.0,0.,12.0,0.,12.0,0.,12.0
1979-07-03 12:28:51.960 ,4,1,0.,12.0,0.,12.0,0.,12.0,0.,12.0
1979-07-03 12:29:03.960 ,4,1,0.,12.0,0.,12.0,0.,12.0,0.,12.0
1979-07-03 12:29:15.960 ,0,1,0.,12.0,0.,12.0,0.,12.0,0.,12.0
1979-07-03 12:29:27.960 ,0,1,0.,12.0,0.,12.0,0.,12.0,0.,12.0
1979-07-03 12:29:39.960 ,0,0,0.,12.0,0.,12.0,0.,12.0,0.,12.0
1979-07-03 12:29:51.960 ,0,0,0.,12.0,0.,12.0,0.,12.0,0.,12.0
1979-07-03 12:30:03.960 ,0,0,0.,12.0,0.,12.0,0.,12.0,0.,12.0
1979-07-03 12:30:15.960 ,0,0,0.,12.0,0.,12.0,0.,12.0,0.,12.0
1979-07-03 12:30:27.960 ,5,1,0.,12.0,0.,12.0,0.,12.0,0.,12.0
1979-07-03 12:30:39.960 ,5,1,0.,12.0,0.,12.0,0.,12.0,0.,12.0
1979-07-03 12:30:51.960 ,5,0,0.,12.0,0.,12.0,0.,12.0,0.,12.0
1979-07-03 12:31:03.960 ,5,0,0.,12.0,0.,12.0,0.,12.0,0.,12.0
1979-07-03 12:31:15.960 ,4,1,0.,12.0,0.,12.0,0.,12.0,0.,12.0
1979-07-03 12:31:27.960 ,4,1,0.,12.0,0.,12.0,0.,12.0,0.,12.0
1979-07-03 12:31:39.960 ,4,0,0.,12.0,0.,12.0,0.,12.0,0.,12.0
1979-07-03 12:31:51.960 ,4,0,0.,12.0,0.,12.0,0.,12.0,0.,12.0
1979-07-03 12:32:03.960 ,3,1,0.,12.0,0.,12.0,0.,12.0,0.,12.0
1979-07-03 12:32:15.960 ,3,1,0.,12.0,0.,12.0,0.,12.0,0.,12.0
1979-07-03 12:32:27.960 ,3,0,0.,12.0,0.,12.0,0.,12.0,0.,12.0
1979-07-03 12:32:39.960 ,3,0,0.,12.0,0.,12.0,0.,12.0,0.,12.0
1979-07-03 12:32:51.960 ,2,1,0.,12.0,0.,12.0,0.,12.0,0.,12.0
1979-07-03 12:33:03.960 ,2,1,0.,12.0,0.,12.0,0.,12.0,0.,12.0
1979-07-03 12:33:15.960 ,2,0,0.,12.0,0.,12.0,0.,12.0,0.,12.0
1979-07-03 12:33:27.960 ,2,0,0.,12.0,0.,12.0,0.,12.0,0.,12.0
1979-07-03 12:33:39.960 ,1,1,0.,12.0,0.,12.0,0.,12.0,0.,12.0
1979-07-03 12:33:51.960 ,1,1,0.,12.0,0.,12.0,0.,12.0,0.,12.0
1979-07-03 12:34:03.960 ,1,0,0.,12.0,0.,12.0,0.,12.0,0.,12.0
1979-07-03 12:34:15.960 ,1,0,0.,12.0,0.,12.0,0.,12.0,0.,12.0
1979-07-03 12:34:27.960 ,0,1,0.,12.0,0.,12.0,0.,12.0,0.,12.0
1979-07-03 12:34:39.960 ,0,1,0.,12.0,0.,12.0,0.,12.0,0.,12.0
1979-07-03 12:34:51.960 ,0,0,0.,12.0,0.,12.0,0.,12.0,0.,12.0
1979-07-03 12:35:03.960 ,0,0,0.,12.0,0.,12.0,0.,12.0,0.,12.0
1979-07-03 12:35:15.960 ,0,1,0.,12.0,0.,12.0,0.,12.0,0.,12.0
1979-07-03 12:35:27.960 ,0,1,0.,12.0,0.,12.0,0.,12.0,0.,12.0
1979-07-03 12:35:39.960 ,0,0,0.,12.0,0.,12.0,0.,12.0,0.,12.0
1979-07-03 12:35:51.960 ,0,0,0.,12.0,0.,12.0,0.,12.0,0.,12.0
1979-07-03 12:36:03.960 ,1,1,0.,12.0,0.,12.0,0.,12.0,0.,12.0
1979-07-03 12:36:15.960 ,1,1,0.,12.0,0.,12.0,0.,12.0,0.,12.0
1979-07-03 12:36:27.960 ,1,0,0.,12.0,0.,12.0,0.,12.0,0.,12.0
1979-07-03 12:36:39.960 ,1,0,0.,12.0,0.,12.0,0.,12.0,0.,12.0
1979-07-03 12:36:51.960 ,2,1,0.,12.0,0.,12.0,0.,12.0,0.,12.0
1979-07-03 12:37:03.960 ,2,1,0.,12.0,0.,12.0,0.,12.0,0.,12.0
1979-07-03 12:37:15.960 ,2,0,0.,12.0,0.,12.0,0.,12.0,0.,12.0
1979-07-03 12:37:27.960 ,2,0,0.,12.0,0.,12.0,0.,12.0,0.,12.0
1979-07-03 12:37:39.960 ,3,1,0.,12.0,0.,12.0,0.,12.0,0.,12.0
1979-07-03 12:37:51.960 ,3,1,0.,12.0,0.,12.0,0.,12.0,0.,12.0
1979-07-03 12:38:03.960 ,3,0,0.,12.0,0.,12.0,0.,12.0,0.,12.0
1979-07-03 12:38:15.960 ,3,0,0.,12.0,0.,12.0,0.,12.0,0.,12.0
1979-07-03 12:38:27.960 ,4,1,0.,12.0,0.,12.0,0.,12.0,0.,12.0
1979-07-03 12:38:39.960 ,4,1,0.,12.0,0.,12.0,0.,12.0,0.,12.0
1979-07-03 12:38:51.960 ,4,0,0.,12.0,0.,12.0,0.,12.0,0.,12.0
1979-07-03 12:39:03.960 ,4,0,0.,12.0,0.,12.0,0.,12.0,0.,12.0
1979-07-03 12:39:15.960 ,5,1,0.,12.0,0.,12.0,0.,12.0,0.,12.0
1979-07-03 12:39:27.960 ,5,1,0.,12.0,0.,12.0,0.,12.0,0.,12.0
1979-07-03 12:39:39.960 ,5,0,0.,12.0,0.,12.0,0.,12.0,0.,12.0
1979-07-03 12:39:51.960 ,5,0,0.,12.0,0.,12.0,0.,12.0,0.,12.0
1979-07-03 12:40:03.960 ,6,1,0.,12.0,0.,12.0,0.,12.0,0.,12.0
1979-07-03 12:40:15.960 ,6,1,0.,12.0,0.,12.0,0.,12.0,0.,12.0
1979-07-03 12:40:27.960 ,6,0,0.,12.0,0.,12.0,0.,12.0,0.,12.0
1979-07-03 12:40:39.960 ,6,0,0.,12.0,0.,12.0,0.,12.0,0.,12.0
1979-07-03 12:40:51.960 ,7,1,0.,12.0,0.,12.0,0.,12.0,0.,12.0
1979-07-03 12:41:03.960 ,7,1,0.,12.0,0.,12.0,0.,12.0,0.,12.0
1979-07-03 12:41:15.960 ,7,0,0.,12.0,0.,12.0,0.,12.0,0.,12.0
1979-07-03 12:41:27.960 ,7,0,0.,12.0,0.,12.0,0.,12.0,0.,12.0
1979-07-03 12:41:39.960 ,7,1,0.,12.0,0.,12.0,0.,12.0,0.,12.0
1979-07-03 12:41:51.960 ,7,1,0.,12.0,0.,12.0,0.,12.0,0.,12.0
1979-07-03 12:42:03.960 ,7,0,0.,12.0,0.,12.0,0.,12.0,0.,12.0
1979-07-03 12:42:15.960 ,7,0,0.,12.0,0.,12.0,0.,12.0,0.,12.0
1979-07-03 12:42:27.960 ,6,1,0.,12.0,0.,12.0,0.,12.0,0.,12.0
1979-07-03 12:42:39.960 ,6,1,0.,12.0,0.,12.0,0.,12.0,0.,12.0
1979-07-03 12:42:51.960 ,6,0,0.,12.0,0.,12.0,0.,12.0,0.,12.0
1979-07-03 12:43:03.960 ,6,0,0.,12.0,0.,12.0,0.,12.0,0.,12.0
1979-07-03 12:43:15.960 ,5,1,0.,12.0,0.,12.0,0.,12.0,0.,12.0
1979-07-03 12:43:27.960 ,5,1,0.,12.0,0.,12.0,0.,12.0,0.,12.0
1979-07-03 12:43:39.960 ,5,0,0.,12.0,0.,12.0,0.,12.0,0.,12.0
1979-07-03 12:43:51.960 ,5,0,0.,12.0,0.,12.0,0.,12.0,0.,12.0
1979-07-03 12:44:03.960 ,4,1,0.,12.0,0.,12.0,0.,12.0,0.,12.0
1979-07-03 12:44:15.960 ,4,1,0.,12.0,0.,12.0,0.,12.0,0.,12.0
1979-07-03 12:44:27.960 ,4,0,0.,12.0,0.,12.0,0.,12.0,0.,12.0
1979-07-03 12:44:39.960 ,4,0,0.,12.0,0.,12.0,0.,12.0,0.,12.0
1979-07-03 12:44:51.960 ,3,1,0.,12.0,0.,12.0,0.,12.0,0.,12.0
1979-07-03 12:45:03.960 ,3,1,0.,12.0,0.,12.0,0.,12.0,0.,12.0
1979-07-03 12:45:15.960 ,3,0,0.,12.0,0.,12.0,0.,12.0,0.,12.0
1979-07-03 12:45:27.960 ,3,0,0.,12.0,0.,12.0,0.,12.0,0.,12.0
1979-07-03 12:45:39.960 ,2,1,0.,12.0,0.,12.0,0.,12.0,0.,12.0
1979-07-03 12:45:51.960 ,2,1,0.,12.0,0.,12.0,0.,12.0,0.,12.0
1979-07-03 12:46:03.960 ,2,0,0.,12.0,0.,12.0,0.,12.0,0.,12.0
1979-07-03 12:46:15.960 ,2,0,0.,12.0,0.,12.0,0.,12.0,0.,12.0
1979-07-03 12:46:27.960 ,1,1,0.,12.0,0.,12.0,0.,12.0,0.,12.0
1979-07-03 12:46:39.960 ,1,1,0.,12.0,0.,12.0,0.,12.0,0.,12.0
1979-07-03 12:46:51.960 ,1,0,0.,12.0,0.,12.0,0.,12.0,0.,12.0
1979-07-03 12:47:03.960 ,1,0,0.,12.0,0.,12.0,0.,12.0,0.,12.0
1979-07-03 12:47:15.960 ,0,1,0.,12.0,0.,12.0,0.,12.0,0.,12.0
1979-07-03 12:47:27.960 ,0,1,0.,12.0,0.,12.0,0.,12.0,0.,12.0
1979-07-03 12:47:39.960 ,0,0,0.,12.0,0.,12.0,0.,12.0,0.,12.0
1979-07-03 12:47:51.960 ,0,0,0.,12.0,0.,12.0,0.,12.0,0.,12.0
1979-07-03 12:48:03.960 ,0,1,0.,12.0,0.,12.0,0.,12.0,0.,12.0
1979-07-03 12:48:15.960 ,0,1,0.,12.0,0.,12.0,0.,12.0,0.,12.0
1979-07-03 12:48:27.960 ,0,0,0.,12.0,0.,12.0,0.,12.0,0.,12.0
1979-07-03 12:48:39.960 ,0,0,0.,12.0,0.,12.0,0.,12.0,0.,12.0
1979-07-03 12:48:51.960 ,1,1,0.,12.0,0.,12.0,0.,12.0,0.,12.0
1979-07-03 12:49:03.960 ,1,1,0.,12.0,0.,12.0,0.,12.0,0.,12.0
1979-07-03 12:49:15.960 ,1,0,0.,12.0,0.,12.0,0.,12.0,0.,12.0
1979-07-03 12:49:27.960 ,1,0,0.,12.0,0.,12.0,0.,12.0,0.,12.0
1979-07-03 12:49:39.960 ,2,1,0.,12.0,0.,12.0,0.,12.0,0.,12.0
1979-07-03 12:49:51.960 ,2,1,0.,12.0,0.,12.0,0.,12.0,0.,12.0
1979-07-03 12:50:03.960 ,2,0,0.,12.0,0.,12.0,0.,12.0,0.,12.0
1979-07-03 12:50:15.960 ,2,0,0.,12.0,0.,12.0,0.,12.0,0.,12.0
1979-07-03 12:50:27.960 ,3,1,0.,12.0,0.,12.0,0.,12.0,0.,12.0
1979-07-03 12:50:39.960 ,3,1,0.,12.0,0.,12.0,0.,12.0,0.,12.0
1979-07-03 12:50:51.960 ,3,0,0.,12.0,0.,12.0,0.,12.0,0.,12.0
1979-07-03 12:51:03.960 ,3,0,0.,12.0,0.,12.0,0.,12.0,0.,12.0
1979-07-03 12:51:15.960 ,4,1,0.,12.0,0.,12.0,0.,12.0,0.,12.0
1979-07-03 12:51:27.960 ,4,1,0.,12.0,0.,12.0,0.,12.0,0.,12.0
1979-07-03 12:51:39.960 ,4,0,0.,12.0,0.,12.0,0.,12.0,0.,12.0
1979-07-03 12:51:51.960 ,4,0,0.,12.0,0.,12.0,0.,12.0,0.,12.0
1979-07-03 12:52:03.960 ,5,1,0.,12.0,0.,12.0,0.,12.0,0.,12.0
1979-07-03 12:52:15.960 ,5,1,0.,12.0,0.,12.0,0.,12.0,0.,12.0
1979-07-03 12:52:27.960 ,5,0,0.,12.0,0.,12.0,0.,12.0,0.,12.0
1979-07-03 12:52:39.960 ,5,0,0.,12.0,0.,12.0,0.,12.0,0.,12.0
1979-07-03 12:52:51.960 ,6,1,0.,12.0,0.,12.0,0.,12.0,0.,12.0
1979-07-03 12:53:03.960 ,6,1,0.,12.0,0.,12.0,0.,12.0,0.,12.0
1979-07-03 12:53:15.960 ,6,0,0.,12.0,0.,12.0,0.,12.0,0.,12.0
1979-07-03 12:53:27.960 ,6,0,0.,12.0,0.,12.0,0.,12.0,0.,12.0
1979-07-03 12:53:39.960 ,7,1,0.,12.0,0.,12.0,0.,12.0,0.,12.0
1979-07-03 12:53:51.960 ,7,1,0.,12.0,0.,12.0,0.,12.0,0.,12.0
1979-07-03 12:54:03.960 ,7,0,0.,12.0,0.,12.0,0.,12.0,0.,12.0
1979-07-03 12:54:15.960 ,7,0,0.,12.0,0.,12.0,0.,12.0,0.,12.0
1979-07-03 12:54:27.960 ,7,1,0.,12.0,0.,12.0,0.,12.0,0.,12.0
1979-07-03 12:54:39.960 ,7,1,0.,12.0,0.,12.0,0.,12.0,0.,12.0
1979-07-03 12:54:51.960 ,7,0,0.,12.0,0.,12.0,0.,12.0,0.,12.0
1979-07-03 12:55:03.960 ,7,0,0.,12.0,0.,12.0,0.,12.0,0.,12.0
1979-07-03 12:55:15.960 ,6,1,0.,12.0,0.,12.0,0.,12.0,0.,12.0
1979-07-03 12:55:27.960 ,6,1,0.,12.0,0.,12.0,0.,12.0,0.,12.0
1979-07-03 12:55:39.960 ,6,0,0.,12.0,0.,12.0,0.,12.0,0.,12.0
1979-07-03 12:55:51.960 ,6,0,0.,12.0,0.,12.0,0.,12.0,0.,12.0
1979-07-03 12:56:03.960 ,5,1,0.,12.0,0.,12.0,0.,12.0,0.,12.0
1979-07-03 12:56:15.960 ,5,1,0.,12.0,0.,12.0,0.,12.0,0.,12.0
1979-07-03 12:56:27.960 ,5,0,0.,12.0,0.,12.0,0.,12.0,0.,12.0
1979-07-03 12:56:39.960 ,5,0,0.,12.0,0.,12.0,0.,12.0,0.,12.0
1979-07-03 12:56:51.960 ,4,1,0.,12.0,0.,12.0,0.,12.0,0.,12.0
1979-07-03 12:57:03.960 ,4,1,0.,12.0,0.,12.0,0.,12.0,0.,12.0
1979-07-03 12:57:15.960 ,4,0,0.,12.0,0.,12.0,0.,12.0,0.,12.0
1979-07-03 12:57:27.960 ,4,0,0.,12.0,0.,12.0,0.,12.0,0.,12.0
1979-07-03 12:57:39.960 ,3,1,0.,12.0,0.,12.0,0.,12.0,0.,12.0
1979-07-03 12:57:51.960 ,3,1,0.,12.0,0.,12.0,0.,12.0,0.,12.0
1979-07-03 12:58:03.960 ,3,0,0.,12.0,0.,12.0,0.,12.0,0.,12.0
1979-07-03 12:58:15.960 ,3,0,0.,12.0,0.,12.0,0.,12.0,0.,12.0
1979-07-03 12:58:27.960 ,2,1,0.,12.0,0.,12.0,0.,12.0,0.,12.0
1979-07-03 12:58:39.960 ,2,1,0.,12.0,0.,12.0,0.,12.0,0.,12.0
1979-07-03 12:58:51.960 ,2,0,0.,12.0,0.,12.0,0.,12.0,0.,12.0
1979-07-03 12:59:03.960 ,2,0,0.,12.0,0.,12.0,0.,12.0,0.,12.0
1979-07-03 12:59:15.960 ,1,1,0.,12.0,0.,12.0,0.,12.0,0.,12.0
1979-07-03 12:59:27.960 ,1,1,0.,12.0,0.,12.0,0.,12.0,0.,12.0
1979-07-03 12:59:39.960 ,1,0,0.,12.0,0.,12.0,0.,12.0,0.,12.0
1979-07-03 12:59:51.960 ,1,0,0.,12.0,0.,12.0,0.,12.0,0.,12.0
1979-07-03 13:00:03.960 ,0,1,0.,12.0,0.,12.0,0.,12.0,0.,12.0
1979-07-03 13:00:15.960 ,0,1,0.,12.0,0.,12.0,0.,12.0,0.,12.0
1979-07-03 13:00:27.960 ,0,0,0.,12.0,0.,12.0,0.,12.0,0.,12.0
1979-07-03 13:00:39.960 ,0,0,0.,12.0,0.,12.0,0.,12.0,0.,12.0
1979-07-03 13:00:51.960 ,0,1,0.,12.0,0.,12.0,0.,12.0,0.,12.0
1979-07-03 13:01:03.960 ,0,1,0.,12.0,0.,12.0,0.,12.0,0.,12.0
1979-07-03 13:01:15.960 ,0,0,0.,12.0,0.,12.0,0.,12.0,0.,12.0
1979-07-03 13:01:27.960 ,0,0,1.,12.0,0.,12.0,0.,12.0,0.,12.0
1979-07-03 13:01:39.960 ,1,1,0.,12.0,0.,12.0,0.,12.0,0.,12.0
1979-07-03 13:01:51.960 ,1,1,0.,12.0,0.,12.0,0.,12.0,0.,12.0
1979-07-03 13:02:03.960 ,1,0,0.,12.0,0.,12.0,0.,12.0,0.,12.0
1979-07-03 13:02:15.960 ,1,0,0.,12.0,0.,12.0,0.,12.0,0.,12.0
1979-07-03 13:02:27.960 ,2,1,0.,12.0,0.,12.0,0.,12.0,0.,12.0
1979-07-03 13:02:39.960 ,2,1,0.,12.0,0.,12.0,0.,12.0,0.,12.0
1979-07-03 13:02:51.960 ,2,0,0.,12.0,0.,12.0,0.,12.0,0.,12.0
1979-07-03 13:03:03.960 ,2,0,0.,12.0,0.,12.0,0.,12.0,0.,12.0
1979-07-03 13:03:15.960 ,3,1,0.,12.0,0.,12.0,0.,12.0,0.,12.0
1979-07-03 13:03:27.960 ,3,1,0.,12.0,0.,12.0,0.,12.0,0.,12.0
1979-07-03 13:03:39.960 ,3,0,0.,12.0,0.,12.0,0.,12.0,0.,12.0
1979-07-03 13:03:51.960 ,3,0,0.,12.0,0.,12.0,0.,12.0,0.,12.0
1979-07-03 13:04:03.960 ,4,1,0.,12.0,0.,12.0,0.,12.0,0.,12.0
1979-07-03 13:04:15.960 ,4,1,0.,12.0,0.,12.0,0.,12.0,0.,12.0
1979-07-03 13:04:27.960 ,4,0,0.,12.0,0.,12.0,0.,12.0,0.,12.0
1979-07-03 13:04:39.960 ,4,0,0.,12.0,0.,12.0,0.,12.0,0.,12.0
1979-07-03 13:04:51.960 ,5,1,0.,12.0,0.,12.0,0.,12.0,0.,12.0
1979-07-03 13:05:03.960 ,5,1,0.,12.0,0.,12.0,0.,12.0,0.,12.0
1979-07-03 13:05:15.960 ,5,0,0.,12.0,0.,12.0,0.,12.0,0.,12.0
1979-07-03 13:05:27.960 ,5,0,0.,12.0,0.,12.0,0.,12.0,0.,12.0
1979-07-03 13:05:39.960 ,6,1,0.,12.0,0.,12.0,0.,12.0,0.,12.0
1979-07-03 13:05:51.960 ,6,1,0.,12.0,0.,12.0,0.,12.0,0.,12.0
1979-07-03 13:06:03.960 ,6,0,0.,12.0,0.,12.0,0.,12.0,0.,12.0
1979-07-03 13:06:15.960 ,6,0,0.,12.0,0.,12.0,0.,12.0,0.,12.0
1979-07-03 13:06:27.960 ,7,0,0.,12.0,0.,12.0,0.,12.0,0.,12.0
1979-07-03 13:06:39.960 ,7,0,0.,12.0,0.,12.0,0.,12.0,0.,12.0
1979-07-03 13:06:51.960 ,7,0,0.,12.0,0.,12.0,0.,12.0,0.,12.0
1979-07-03 13:07:03.960 ,7,0,0.,12.0,0.,12.0,0.,12.0,0.,12.0
1979-07-03 13:07:15.960 ,4,1,0.,12.0,0.,12.0,0.,12.0,0.,12.0
1979-07-03 13:07:27.960 ,4,1,0.,12.0,0.,12.0,0.,12.0,0.,12.0
1979-07-03 13:07:39.960 ,0,1,0.,12.0,0.,12.0,0.,12.0,0.,12.0
1979-07-03 13:07:51.960 ,0,1,0.,12.0,0.,12.0,0.,12.0,0.,12.0
1979-07-03 13:08:03.960 ,3,1,0.,12.0,0.,12.0,0.,12.0,0.,12.0
1979-07-03 13:08:15.960 ,3,1,0.,12.0,0.,12.0,0.,12.0,0.,12.0
1979-07-03 13:08:27.960 ,7,1,0.,12.0,0.,12.0,0.,12.0,0.,12.0
1979-07-03 13:08:39.960 ,7,1,0.,12.0,0.,12.0,0.,12.0,0.,12.0
1979-07-03 13:08:51.960 ,4,1,0.,12.0,0.,12.0,0.,12.0,0.,12.0
1979-07-03 13:09:03.960 ,4,1,0.,12.0,0.,12.0,0.,12.0,0.,12.0
1979-07-03 13:09:15.960 ,0,1,0.,12.0,0.,12.0,0.,12.0,0.,12.0
1979-07-03 13:09:27.960 ,0,1,0.,12.0,0.,12.0,0.,12.0,0.,12.0
1979-07-03 13:09:39.960 ,3,1,0.,12.0,0.,12.0,0.,12.0,0.,12.0
1979-07-03 13:09:51.960 ,3,1,0.,12.0,0.,12.0,0.,12.0,0.,12.0
1979-07-03 13:10:03.960 ,7,1,0.,12.0,0.,12.0,0.,12.0,0.,12.0
1979-07-03 13:10:15.960 ,7,1,0.,12.0,0.,12.0,0.,12.0,0.,12.0
1979-07-03 13:10:27.960 ,4,1,0.,12.0,0.,12.0,0.,12.0,0.,12.0
1979-07-03 13:10:39.960 ,4,1,0.,12.0,0.,12.0,0.,12.0,0.,12.0
1979-07-03 13:10:51.960 ,0,1,0.,12.0,0.,12.0,0.,12.0,0.,12.0
1979-07-03 13:11:03.960 ,0,1,0.,12.0,0.,12.0,0.,12.0,0.,12.0
1979-07-03 13:11:15.960 ,3,1,0.,12.0,0.,12.0,0.,12.0,0.,12.0
1979-07-03 13:11:27.960 ,3,1,0.,12.0,0.,12.0,0.,12.0,0.,12.0
1979-07-03 13:11:39.960 ,7,1,0.,12.0,0.,12.0,0.,12.0,0.,12.0
1979-07-03 13:11:51.960 ,7,1,0.,12.0,0.,12.0,0.,12.0,0.,12.0
1979-07-03 13:12:03.960 ,4,1,0.,12.0,0.,12.0,0.,12.0,0.,12.0
1979-07-03 13:12:15.960 ,4,1,0.,12.0,0.,12.0,0.,12.0,0.,12.0
1979-07-03 13:12:27.960 ,0,1,0.,12.0,0.,12.0,0.,12.0,0.,12.0
1979-07-03 13:12:39.960 ,0,1,0.,12.0,0.,12.0,0.,12.0,0.,12.0
1979-07-03 13:12:51.960 ,0,0,0.,12.0,0.,12.0,0.,12.0,0.,12.0
1979-07-03 13:13:03.960 ,0,0,0.,12.0,0.,12.0,0.,12.0,0.,12.0
1979-07-03 13:13:15.960 ,0,0,0.,12.0,0.,12.0,0.,12.0,0.,12.0
1979-07-03 13:13:27.960 ,0,0,0.,12.0,0.,12.0,0.,12.0,0.,12.0
1979-07-03 13:13:39.960 ,4,1,0.,12.0,0.,12.0,0.,12.0,0.,12.0
1979-07-03 13:13:51.960 ,4,1,0.,12.0,0.,12.0,0.,12.0,0.,12.0
1979-07-03 13:14:03.960 ,0,1,0.,12.0,0.,12.0,0.,12.0,0.,12.0
1979-07-03 13:14:15.960 ,0,1,0.,12.0,0.,12.0,0.,12.0,0.,12.0
1979-07-03 13:14:27.960 ,3,1,0.,12.0,0.,12.0,0.,12.0,0.,12.0
1979-07-03 13:14:39.960 ,3,1,0.,12.0,0.,12.0,0.,12.0,0.,12.0
1979-07-03 13:14:51.960 ,7,1,0.,12.0,0.,12.0,0.,12.0,0.,12.0
1979-07-03 13:15:03.960 ,7,1,0.,12.0,0.,12.0,0.,12.0,0.,12.0
1979-07-03 13:15:15.960 ,4,1,0.,12.0,0.,12.0,0.,12.0,0.,12.0
1979-07-03 13:15:27.960 ,4,1,0.,12.0,0.,12.0,0.,12.0,0.,12.0
1979-07-03 13:15:39.960 ,0,1,0.,12.0,0.,12.0,0.,12.0,0.,12.0
1979-07-03 13:15:51.960 ,0,1,0.,12.0,0.,12.0,0.,12.0,0.,12.0
1979-07-03 13:16:03.960 ,3,1,0.,12.0,0.,12.0,0.,12.0,0.,12.0
1979-07-03 13:16:15.960 ,3,1,0.,12.0,0.,12.0,0.,12.0,0.,12.0
1979-07-03 13:16:27.960 ,7,1,0.,12.0,0.,12.0,0.,12.0,0.,12.0
1979-07-03 13:16:39.960 ,7,1,0.,12.0,0.,12.0,0.,12.0,0.,12.0
1979-07-03 13:16:51.960 ,4,1,0.,12.0,0.,12.0,0.,12.0,0.,12.0
1979-07-03 13:17:03.960 ,4,1,0.,12.0,0.,12.0,0.,12.0,0.,12.0
1979-07-03 13:17:15.960 ,0,1,0.,12.0,0.,12.0,0.,12.0,0.,12.0
1979-07-03 13:17:27.960 ,0,1,0.,12.0,0.,12.0,0.,12.0,0.,12.0
1979-07-03 13:17:39.960 ,0,0,0.,12.0,0.,12.0,0.,12.0,0.,12.0
1979-07-03 13:17:51.960 ,0,0,0.,12.0,0.,12.0,0.,12.0,0.,12.0
1979-07-03 13:18:03.960 ,0,0,0.,12.0,0.,12.0,0.,12.0,0.,12.0
1979-07-03 13:18:15.960 ,0,0,0.,12.0,0.,12.0,0.,12.0,0.,12.0